[ hide orbit diagram ]
For accurate long-term ephemerides, please instead use our Horizons system.This orbit viewer was implemented using two-body methods, and hence should not be used for determining accurate long-term trajectories (over several years or decades) or planetary encounter circumstances.
Orbital Elements at Epoch 2459000.5 (2020-May-31.0) TDB
Reference: JPL 15 (heliocentric ecliptic J2000)
Element | Value | Uncertainty (1-sigma) | Units |
e | .2219836191213365 | 8.2596e-08 | |
a | 2.243775759916873 | 9.0704e-09 | au |
q | 1.745694296233799 | 1.8761e-07 | au |
i | 6.252510321642017 | 9.3406e-06 | deg |
node | 209.7924134562098 | 3.784e-05 | deg |
peri | 177.7255644143036 | 3.9715e-05 | deg |
M | 19.63655633009773 | 1.1354e-05 | deg |
tp | 2458933.537689287651 (2020-Mar-25.03768929) | 3.8508e-05 | TDB |
period | 1227.630316192292 3.36 | 7.444e-06 2.038e-08 | d yr |
n | .2932478900623784 | 1.7782e-09 | deg/d |
Q | 2.741857223599948 | 1.1084e-08 | au |
|
| | Orbit Determination Parameters
Additional Information
|
[ hide covariance matrix ]
Orbital Elements at Epoch 2456890.5 (2014-Aug-21.0) TDB
Reference: JPL 15 (heliocentric ecliptic J2000)
Element | Value | Uncertainty (1-sigma) | Units |
e | .2231748610375142 | 8.2916e-08 | |
q | 1.742790336844982 | 1.8862e-07 | au |
tp | 2456478.013241110753 (2013-Jul-04.51324111) | 3.2574e-05 | TDB |
node | 209.8414485030304 | 3.7797e-05 | deg |
peri | 177.5683009548789 | 3.9634e-05 | deg |
i | 6.256162528609378 | 9.3497e-06 | deg |
|
| | Orbit Determination Parameters
Additional Information
|
Orbit Covariance (6×6)
|
|
e |
q |
tp |
node |
peri |
i |
e |
6.875038319738661E-15 |
-1.563000685436138E-14 |
-7.257281472963996E-13 |
-2.363913094069934E-14 |
-2.005372874512455E-13 |
-2.263411054505499E-14 |
q |
-1.563000685436138E-14 |
3.5579094110331E-14 |
1.662694482489566E-12 |
5.407340454474479E-14 |
4.622845124920401E-13 |
5.159861985463254E-14 |
tp |
-7.257281472963996E-13 |
1.662694482489566E-12 |
1.061062009343111E-9 |
7.886893326297351E-12 |
3.937197356082405E-10 |
6.648199278179178E-13 |
node |
-2.363913094069934E-14 |
5.407340454474479E-14 |
7.886893326297351E-12 |
1.428643465672718E-9 |
-1.416481423496053E-9 |
-8.707200953196454E-11 |
peri |
-2.005372874512455E-13 |
4.622845124920401E-13 |
3.937197356082405E-10 |
-1.416481423496053E-9 |
1.570869138309284E-9 |
8.666420862534726E-11 |
i |
-2.263411054505499E-14 |
5.159861985463254E-14 |
6.648199278179178E-13 |
-8.707200953196454E-11 |
8.666420862534726E-11 |
8.741692869887443E-11 |
|
Physical Parameter Table
Parameter |
Symbol |
Value |
Units |
Sigma |
Reference |
Notes |
absolute magnitude |
H |
16.9 |
|
n/a |
MPO440510 |
|
|
332260 (2006 QO100) Discovered 2006-Aug-24 by LINEAR at Socorro |
Reference: 20120703/Numbers.arc | Last Updated: 2012-07-09 |
|
[ hide close-approach data ]
Close-Approach Data ...sorted by Date/Time (TDB)
|
Date/Time (TDB) |
Time Uncertainty (days_HH:MM) |
Body |
Nominal Distance (au) |
Minimum Distance (au) |
Maximum Distance (au) |
V-relative (km/s) |
V-infinity (km/s) |
JD (TDB) |
Time Uncertainty (minutes) |
Semi-major axis (km) |
Semi-minor axis (km) |
range-LOV angle (deg) |
N-sigma |
BP |
Orbit Ref. |
Reference |
Modified |
2193-Jan-23 13:14 |
00:15 |
Amphi |
0.0464966966230537 |
0.0464665437824392 |
0.046526901647075 |
3.91782955355835 |
3.91782952200065 |
2522060.051157915 |
15.4841696556628 |
2880.13714144072 |
45.569062668716 |
58.5283600677287 |
130124.251111545 |
T |
15 |
CATAB v2.0f-lin.ifort 2020-Dec-18 00:51:58 |
2020-Dec-18 00:52 |
|
|